Year,Month,Day,Hour,Minute,Value (Times are PST for temperature in C)
2016,08,25,00,00,19.60
2016,08,25,00,01,19.60
2016,08,25,00,02,19.60
2016,08,25,00,03,19.50
2016,08,25,00,04,19.50
2016,08,25,00,05,19.50
2016,08,25,00,06,19.50
2016,08,25,00,07,19.40
2016,08,25,00,08,19.40
2016,08,25,00,09,19.40
2016,08,25,00,10,19.40
2016,08,25,00,11,19.30
2016,08,25,00,12,19.30
2016,08,25,00,13,19.30
2016,08,25,00,14,19.30
2016,08,25,00,15,19.30
2016,08,25,00,16,19.30
2016,08,25,00,17,19.30
2016,08,25,00,18,19.20
2016,08,25,00,19,19.20
2016,08,25,00,20,19.20
2016,08,25,00,21,19.20
2016,08,25,00,22,19.20
2016,08,25,00,23,19.20
2016,08,25,00,24,19.10
2016,08,25,00,25,19.10
2016,08,25,00,26,19.10
2016,08,25,00,27,19.10
2016,08,25,00,28,19.10
2016,08,25,00,29,19.10
2016,08,25,00,30,19.10
2016,08,25,00,31,19.10
2016,08,25,00,32,19.10
2016,08,25,00,33,19.10
2016,08,25,00,34,19.00
2016,08,25,00,35,18.90
2016,08,25,00,36,18.90
2016,08,25,00,37,18.90
2016,08,25,00,38,18.90
2016,08,25,00,39,18.90
2016,08,25,00,40,18.90
2016,08,25,00,41,18.90
2016,08,25,00,42,18.90
2016,08,25,00,43,18.90
2016,08,25,00,44,18.90
2016,08,25,00,45,18.90
2016,08,25,00,46,18.90
2016,08,25,00,47,18.80
2016,08,25,00,48,18.80
2016,08,25,00,49,18.80
2016,08,25,00,50,18.80
2016,08,25,00,51,18.80
2016,08,25,00,52,18.80
2016,08,25,00,53,18.70
2016,08,25,00,54,18.70
2016,08,25,00,55,18.70
2016,08,25,00,56,18.60
2016,08,25,00,57,18.60
2016,08,25,00,58,18.60
2016,08,25,00,59,18.50
2016,08,25,01,00,18.50
2016,08,25,01,01,18.50
2016,08,25,01,02,18.50
2016,08,25,01,03,18.50
2016,08,25,01,04,18.50
2016,08,25,01,05,18.50
2016,08,25,01,06,18.50
2016,08,25,01,07,18.50
2016,08,25,01,08,18.50
2016,08,25,01,09,18.50
2016,08,25,01,10,18.50
2016,08,25,01,11,18.60
2016,08,25,01,12,18.60
2016,08,25,01,13,18.60
2016,08,25,01,14,18.60
2016,08,25,01,15,18.60
2016,08,25,01,16,18.60
2016,08,25,01,17,18.60
2016,08,25,01,18,18.60
2016,08,25,01,19,18.50
2016,08,25,01,20,18.50
2016,08,25,01,21,18.50
2016,08,25,01,22,18.50
2016,08,25,01,23,18.50
2016,08,25,01,24,18.50
2016,08,25,01,25,18.50
2016,08,25,01,26,18.50
2016,08,25,01,27,18.40
2016,08,25,01,28,18.40
2016,08,25,01,29,18.40
2016,08,25,01,30,18.40
2016,08,25,01,31,18.40
2016,08,25,01,32,18.40
2016,08,25,01,33,18.40
2016,08,25,01,34,18.40
2016,08,25,01,35,18.40
2016,08,25,01,36,18.30
2016,08,25,01,37,18.30
2016,08,25,01,38,18.30
2016,08,25,01,39,18.30
2016,08,25,01,40,18.20
2016,08,25,01,41,18.20
2016,08,25,01,42,18.20
2016,08,25,01,43,18.20
2016,08,25,01,44,18.20
2016,08,25,01,45,18.20
2016,08,25,01,46,18.20
2016,08,25,01,47,18.20
2016,08,25,01,48,18.20
2016,08,25,01,49,18.10
2016,08,25,01,50,18.10
2016,08,25,01,51,18.10
2016,08,25,01,52,18.00
2016,08,25,01,53,17.90
2016,08,25,01,54,17.90
2016,08,25,01,55,17.90
2016,08,25,01,56,17.90
2016,08,25,01,57,17.90
2016,08,25,01,58,17.80
2016,08,25,01,59,17.80
2016,08,25,02,00,17.80
2016,08,25,02,01,17.80
2016,08,25,02,02,17.80
2016,08,25,02,03,17.80
2016,08,25,02,04,17.70
2016,08,25,02,05,17.70
2016,08,25,02,06,17.70
2016,08,25,02,07,17.70
2016,08,25,02,08,17.70
2016,08,25,02,09,17.60
2016,08,25,02,10,17.60
2016,08,25,02,11,17.60
2016,08,25,02,12,17.60
2016,08,25,02,13,17.60
2016,08,25,02,14,17.60
2016,08,25,02,15,17.50
2016,08,25,02,16,17.50
2016,08,25,02,17,17.50
2016,08,25,02,18,17.50
2016,08,25,02,19,17.50
2016,08,25,02,20,17.50
2016,08,25,02,21,17.50
2016,08,25,02,22,17.50
2016,08,25,02,23,17.60
2016,08,25,02,24,17.60
2016,08,25,02,25,17.60
2016,08,25,02,26,17.60
2016,08,25,02,27,17.60
2016,08,25,02,28,17.70
2016,08,25,02,29,17.70
2016,08,25,02,30,17.70
2016,08,25,02,31,17.60
2016,08,25,02,32,17.60
2016,08,25,02,33,17.60
2016,08,25,02,34,17.60
2016,08,25,02,35,17.60
2016,08,25,02,36,17.70
2016,08,25,02,37,17.70
2016,08,25,02,38,17.70
2016,08,25,02,39,17.70
2016,08,25,02,40,17.70
2016,08,25,02,41,17.70
2016,08,25,02,42,17.70
2016,08,25,02,43,17.70
2016,08,25,02,44,17.70
2016,08,25,02,45,17.60
2016,08,25,02,46,17.60
2016,08,25,02,47,17.60
2016,08,25,02,48,17.50
2016,08,25,02,49,17.50
2016,08,25,02,50,17.50
2016,08,25,02,51,17.50
2016,08,25,02,52,17.50
2016,08,25,02,53,17.40
2016,08,25,02,54,17.40
2016,08,25,02,55,17.40
2016,08,25,02,56,17.30
2016,08,25,02,57,17.30
2016,08,25,02,58,17.30
2016,08,25,02,59,17.30
2016,08,25,03,00,17.30
2016,08,25,03,01,17.30
2016,08,25,03,02,17.20
2016,08,25,03,03,17.20
2016,08,25,03,04,17.20
2016,08,25,03,05,17.10
2016,08,25,03,06,17.10
2016,08,25,03,07,17.10
2016,08,25,03,08,17.10
2016,08,25,03,09,17.10
2016,08,25,03,10,17.10
2016,08,25,03,11,17.10
2016,08,25,03,12,17.00
2016,08,25,03,13,17.00
2016,08,25,03,14,17.00
2016,08,25,03,15,17.00
2016,08,25,03,16,17.00
2016,08,25,03,17,16.90
2016,08,25,03,18,16.90
2016,08,25,03,19,16.90
2016,08,25,03,20,17.00
2016,08,25,03,21,17.00
2016,08,25,03,22,17.00
2016,08,25,03,23,17.00
2016,08,25,03,24,16.90
2016,08,25,03,25,16.90
2016,08,25,03,26,16.90
2016,08,25,03,27,16.90
2016,08,25,03,28,16.90
2016,08,25,03,29,16.90
2016,08,25,03,30,16.80
2016,08,25,03,31,16.80
2016,08,25,03,32,16.80
2016,08,25,03,33,16.80
2016,08,25,03,34,16.80
2016,08,25,03,35,16.70
2016,08,25,03,36,16.70
2016,08,25,03,37,16.70
2016,08,25,03,38,16.70
2016,08,25,03,39,16.70
2016,08,25,03,40,16.70
2016,08,25,03,41,16.70
2016,08,25,03,42,16.70
2016,08,25,03,43,16.70
2016,08,25,03,44,16.70
2016,08,25,03,45,16.70
2016,08,25,03,46,16.70
2016,08,25,03,47,16.70
2016,08,25,03,48,16.70
2016,08,25,03,49,16.70
2016,08,25,03,50,16.70
2016,08,25,03,51,16.70
2016,08,25,03,52,16.70
2016,08,25,03,53,16.70
2016,08,25,03,54,16.70
2016,08,25,03,55,16.70
2016,08,25,03,56,16.70
2016,08,25,03,57,16.80
2016,08,25,03,58,16.80
2016,08,25,03,59,16.80
2016,08,25,04,00,16.80
2016,08,25,04,01,16.80
2016,08,25,04,02,16.80
2016,08,25,04,03,16.80
2016,08,25,04,04,16.80
2016,08,25,04,05,16.80
2016,08,25,04,06,16.80
2016,08,25,04,07,16.70
2016,08,25,04,08,16.70
2016,08,25,04,09,16.70
2016,08,25,04,10,16.70
2016,08,25,04,11,16.70
2016,08,25,04,12,16.70
2016,08,25,04,13,16.70
2016,08,25,04,14,16.70
2016,08,25,04,15,16.70
2016,08,25,04,16,16.70
2016,08,25,04,17,16.70
2016,08,25,04,18,16.70
2016,08,25,04,19,16.70
2016,08,25,04,20,16.70
2016,08,25,04,21,16.70
2016,08,25,04,22,16.70
2016,08,25,04,23,16.70
2016,08,25,04,24,16.70
2016,08,25,04,25,16.80
2016,08,25,04,26,16.80
2016,08,25,04,27,16.80
2016,08,25,04,28,16.80
2016,08,25,04,29,16.80
2016,08,25,04,30,16.80
2016,08,25,04,31,16.80
2016,08,25,04,32,16.80
2016,08,25,04,33,16.80
2016,08,25,04,34,16.80
2016,08,25,04,35,16.80
2016,08,25,04,36,16.80
2016,08,25,04,37,16.80
2016,08,25,04,38,16.90
2016,08,25,04,39,16.90
2016,08,25,04,40,17.00
2016,08,25,04,41,17.00
2016,08,25,04,42,17.10
2016,08,25,04,43,17.10
2016,08,25,04,44,17.10
2016,08,25,04,45,17.00
2016,08,25,04,46,17.00
2016,08,25,04,47,17.00
2016,08,25,04,48,17.00
2016,08,25,04,49,17.20
2016,08,25,04,50,17.30
2016,08,25,04,51,17.30
2016,08,25,04,52,17.40
2016,08,25,04,53,17.50
2016,08,25,04,54,17.60
2016,08,25,04,55,17.70
2016,08,25,04,56,17.80
2016,08,25,04,57,17.80
2016,08,25,04,58,17.90
2016,08,25,04,59,17.90
2016,08,25,05,00,17.80
2016,08,25,05,01,17.80
2016,08,25,05,02,17.70
2016,08,25,05,03,17.70
2016,08,25,05,04,17.60
2016,08,25,05,05,17.60
2016,08,25,05,06,17.50
2016,08,25,05,07,17.50
2016,08,25,05,08,17.50
2016,08,25,05,09,17.40
2016,08,25,05,10,17.40
2016,08,25,05,11,17.40
2016,08,25,05,12,17.40
2016,08,25,05,13,17.40
2016,08,25,05,14,17.40
2016,08,25,05,15,17.40
2016,08,25,05,16,17.40
2016,08,25,05,17,17.40
2016,08,25,05,18,17.30
2016,08,25,05,19,17.30
2016,08,25,05,20,17.30
2016,08,25,05,21,17.30
2016,08,25,05,22,17.20
2016,08,25,05,23,17.20
2016,08,25,05,24,17.10
2016,08,25,05,25,17.10
2016,08,25,05,26,17.00
2016,08,25,05,27,17.00
2016,08,25,05,28,17.00
2016,08,25,05,29,16.90
2016,08,25,05,30,16.90
2016,08,25,05,31,16.80
2016,08,25,05,32,16.80
2016,08,25,05,33,16.80
2016,08,25,05,34,16.70
2016,08,25,05,35,16.70
2016,08,25,05,36,16.70
2016,08,25,05,37,16.70
2016,08,25,05,38,16.70
2016,08,25,05,39,16.70
2016,08,25,05,40,16.70
2016,08,25,05,41,16.70
2016,08,25,05,42,16.60
2016,08,25,05,43,16.60
2016,08,25,05,44,16.60
2016,08,25,05,45,16.60
2016,08,25,05,46,16.60
2016,08,25,05,47,16.50
2016,08,25,05,48,16.40
2016,08,25,05,49,16.40
2016,08,25,05,50,16.40
2016,08,25,05,51,16.40
2016,08,25,05,52,16.40
2016,08,25,05,53,16.30
2016,08,25,05,54,16.30
2016,08,25,05,55,16.30
2016,08,25,05,56,16.30
2016,08,25,05,57,16.30
2016,08,25,05,58,16.20
2016,08,25,05,59,16.20
2016,08,25,06,00,16.20
2016,08,25,06,01,16.20
2016,08,25,06,02,16.20
2016,08,25,06,03,16.10
2016,08,25,06,04,16.10
2016,08,25,06,05,16.10
2016,08,25,06,06,16.10
2016,08,25,06,07,16.10
2016,08,25,06,08,16.10
2016,08,25,06,09,16.00
2016,08,25,06,10,15.90
2016,08,25,06,11,15.90
2016,08,25,06,12,15.90
2016,08,25,06,13,15.90
2016,08,25,06,14,15.80
2016,08,25,06,15,15.80
2016,08,25,06,16,15.80
2016,08,25,06,17,15.80
2016,08,25,06,18,15.80
2016,08,25,06,19,15.80
2016,08,25,06,20,15.80
2016,08,25,06,21,15.80
2016,08,25,06,22,15.80
2016,08,25,06,23,15.70
2016,08,25,06,24,15.70
2016,08,25,06,25,15.70
2016,08,25,06,26,15.70
2016,08,25,06,27,15.70
2016,08,25,06,28,15.70
2016,08,25,06,29,15.70
2016,08,25,06,30,15.70
2016,08,25,06,31,15.60
2016,08,25,06,32,15.60
2016,08,25,06,33,15.60
2016,08,25,06,34,15.60
2016,08,25,06,35,15.60
2016,08,25,06,36,15.60
2016,08,25,06,37,15.50
2016,08,25,06,38,15.50
2016,08,25,06,39,15.50
2016,08,25,06,40,15.50
2016,08,25,06,41,15.50
2016,08,25,06,42,15.50
2016,08,25,06,43,15.50
2016,08,25,06,44,15.50
2016,08,25,06,45,15.50
2016,08,25,06,46,15.50
2016,08,25,06,47,15.50
2016,08,25,06,48,15.50
2016,08,25,06,49,15.50
2016,08,25,06,50,15.60
2016,08,25,06,51,15.60
2016,08,25,06,52,15.70
2016,08,25,06,53,15.70
2016,08,25,06,54,15.80
2016,08,25,06,55,15.80
2016,08,25,06,56,15.80
2016,08,25,06,57,15.80
2016,08,25,06,58,15.80
2016,08,25,06,59,15.80
2016,08,25,07,00,15.80
2016,08,25,07,01,15.80
2016,08,25,07,02,15.90
2016,08,25,07,03,15.90
2016,08,25,07,04,16.00
2016,08,25,07,05,16.10
2016,08,25,07,06,16.10
2016,08,25,07,07,16.10
2016,08,25,07,08,16.20
2016,08,25,07,09,16.30
2016,08,25,07,10,16.40
2016,08,25,07,11,16.50
2016,08,25,07,12,16.60
2016,08,25,07,13,16.70
2016,08,25,07,14,16.80
2016,08,25,07,15,16.90
2016,08,25,07,16,17.00
2016,08,25,07,17,17.00
2016,08,25,07,18,17.10
2016,08,25,07,19,17.10
2016,08,25,07,20,17.10
2016,08,25,07,21,17.10
2016,08,25,07,22,17.20
2016,08,25,07,23,17.20
2016,08,25,07,24,17.30
2016,08,25,07,25,17.40
2016,08,25,07,26,17.60
2016,08,25,07,27,17.80
2016,08,25,07,28,17.90
2016,08,25,07,29,18.10
2016,08,25,07,30,18.30
2016,08,25,07,31,18.50
2016,08,25,07,32,18.60
2016,08,25,07,33,18.70
2016,08,25,07,34,18.80
2016,08,25,07,35,18.90
2016,08,25,07,36,18.90
2016,08,25,07,37,19.00
2016,08,25,07,38,19.10
2016,08,25,07,39,19.10
2016,08,25,07,40,19.10
2016,08,25,07,41,19.20
2016,08,25,07,42,19.20
2016,08,25,07,43,19.20
2016,08,25,07,44,19.30
2016,08,25,07,45,19.30
2016,08,25,07,46,19.40
2016,08,25,07,47,19.40
2016,08,25,07,48,19.50
2016,08,25,07,49,19.50
2016,08,25,07,50,19.50
2016,08,25,07,51,19.60
2016,08,25,07,52,19.60
2016,08,25,07,53,19.70
2016,08,25,07,54,19.70
2016,08,25,07,55,19.70
2016,08,25,07,56,19.80
2016,08,25,07,57,19.90
2016,08,25,07,58,19.90
2016,08,25,07,59,19.90
2016,08,25,08,00,19.90
2016,08,25,08,01,20.10
2016,08,25,08,02,20.10
2016,08,25,08,03,20.10
2016,08,25,08,04,20.20
2016,08,25,08,05,20.20
2016,08,25,08,06,20.20
2016,08,25,08,07,20.20
2016,08,25,08,08,20.20
2016,08,25,08,09,20.30
2016,08,25,08,10,20.30
2016,08,25,08,11,20.30
2016,08,25,08,12,20.40
2016,08,25,08,13,20.40
2016,08,25,08,14,20.50
2016,08,25,08,15,20.50
2016,08,25,08,16,20.60
2016,08,25,08,17,20.60
2016,08,25,08,18,20.70
2016,08,25,08,19,20.70
2016,08,25,08,20,20.80
2016,08,25,08,21,20.90
2016,08,25,08,22,21.00
2016,08,25,08,23,21.00
2016,08,25,08,24,21.00
2016,08,25,08,25,21.10
2016,08,25,08,26,21.10
2016,08,25,08,27,21.10
2016,08,25,08,28,21.20
2016,08,25,08,29,21.20
2016,08,25,08,30,21.20
2016,08,25,08,31,21.30
2016,08,25,08,32,21.30
2016,08,25,08,33,21.40
2016,08,25,08,34,21.50
2016,08,25,08,35,21.60
2016,08,25,08,36,21.60
2016,08,25,08,37,21.70
2016,08,25,08,38,21.70
2016,08,25,08,39,21.80
2016,08,25,08,40,21.80
2016,08,25,08,41,21.80
2016,08,25,08,42,21.80
2016,08,25,08,43,21.80
2016,08,25,08,44,21.90
2016,08,25,08,45,22.00
2016,08,25,08,46,22.00
2016,08,25,08,47,22.10
2016,08,25,08,48,22.20
2016,08,25,08,49,22.20
2016,08,25,08,50,22.30
2016,08,25,08,51,22.30
2016,08,25,08,52,22.40
2016,08,25,08,53,22.50
2016,08,25,08,54,22.60
2016,08,25,08,55,22.60
2016,08,25,08,56,22.70
2016,08,25,08,57,22.80
2016,08,25,08,58,22.80
2016,08,25,08,59,22.80
2016,08,25,09,00,22.80
2016,08,25,09,01,22.80
2016,08,25,09,02,22.80
2016,08,25,09,03,22.80
2016,08,25,09,04,22.80
2016,08,25,09,05,22.70
2016,08,25,09,06,22.70
2016,08,25,09,07,22.60
2016,08,25,09,08,22.60
2016,08,25,09,09,22.60
2016,08,25,09,10,22.60
2016,08,25,09,11,22.60
2016,08,25,09,12,22.50
2016,08,25,09,13,22.50
2016,08,25,09,14,22.50
2016,08,25,09,15,22.50
2016,08,25,09,16,22.50
2016,08,25,09,17,22.50
2016,08,25,09,18,22.50
2016,08,25,09,19,22.50
2016,08,25,09,20,22.50
2016,08,25,09,21,22.60
2016,08,25,09,22,22.60
2016,08,25,09,23,22.60
2016,08,25,09,24,22.70
2016,08,25,09,25,22.70
2016,08,25,09,26,22.70
2016,08,25,09,27,22.80
2016,08,25,09,28,22.80
2016,08,25,09,29,22.70
2016,08,25,09,30,22.80
2016,08,25,09,31,22.80
2016,08,25,09,32,22.80
2016,08,25,09,33,22.90
2016,08,25,09,34,22.90
2016,08,25,09,35,22.90
2016,08,25,09,36,22.90
2016,08,25,09,37,22.90
2016,08,25,09,38,22.90
2016,08,25,09,39,22.90
2016,08,25,09,40,22.80
2016,08,25,09,41,22.80
2016,08,25,09,42,22.80
2016,08,25,09,43,22.80
2016,08,25,09,44,22.80
2016,08,25,09,45,22.90
2016,08,25,09,46,22.90
2016,08,25,09,47,22.90
2016,08,25,09,48,22.90
2016,08,25,09,49,22.90
2016,08,25,09,50,22.90
2016,08,25,09,51,22.90
2016,08,25,09,52,22.90
2016,08,25,09,53,22.90
2016,08,25,09,54,22.90
2016,08,25,09,55,23.00
2016,08,25,09,56,23.10
2016,08,25,09,57,23.20
2016,08,25,09,58,23.30
2016,08,25,09,59,23.30
2016,08,25,10,00,23.30
2016,08,25,10,01,23.30
2016,08,25,10,02,23.40
2016,08,25,10,03,23.40
2016,08,25,10,04,23.40
2016,08,25,10,05,23.40
2016,08,25,10,06,23.60
2016,08,25,10,07,23.60
2016,08,25,10,08,23.50
2016,08,25,10,09,23.40
2016,08,25,10,10,23.40
2016,08,25,10,11,23.30
2016,08,25,10,12,23.30
2016,08,25,10,13,23.30
2016,08,25,10,14,23.30
2016,08,25,10,15,23.30
2016,08,25,10,16,23.30
2016,08,25,10,17,23.30
2016,08,25,10,18,23.30
2016,08,25,10,19,23.40
2016,08,25,10,20,23.40
2016,08,25,10,21,23.40
2016,08,25,10,22,23.40
2016,08,25,10,23,23.40
2016,08,25,10,24,23.40
2016,08,25,10,25,23.40
2016,08,25,10,26,23.40
2016,08,25,10,27,23.40
2016,08,25,10,28,23.40
2016,08,25,10,29,23.50
2016,08,25,10,30,23.60
2016,08,25,10,31,23.60
2016,08,25,10,32,23.60
2016,08,25,10,33,23.70
2016,08,25,10,34,23.70
2016,08,25,10,35,23.80
2016,08,25,10,36,23.80
2016,08,25,10,37,23.80
2016,08,25,10,38,23.80
2016,08,25,10,39,23.80
2016,08,25,10,40,23.90
2016,08,25,10,41,23.90
2016,08,25,10,42,23.80
2016,08,25,10,43,23.90
2016,08,25,10,44,23.90
2016,08,25,10,45,24.00
2016,08,25,10,46,24.10
2016,08,25,10,47,24.10
2016,08,25,10,48,24.10
2016,08,25,10,49,24.20
2016,08,25,10,50,24.20
2016,08,25,10,51,24.20
2016,08,25,10,52,24.30
2016,08,25,10,53,24.30
2016,08,25,10,54,24.30
2016,08,25,10,55,24.40
2016,08,25,10,56,24.50
2016,08,25,10,57,24.50
2016,08,25,10,58,24.50
2016,08,25,10,59,24.50
2016,08,25,11,00,24.50
2016,08,25,11,01,24.60
2016,08,25,11,02,24.60
2016,08,25,11,03,24.70
2016,08,25,11,04,24.70
2016,08,25,11,05,24.80
2016,08,25,11,06,24.80
2016,08,25,11,07,24.90
2016,08,25,11,08,24.90
2016,08,25,11,09,24.90
2016,08,25,11,10,24.90
2016,08,25,11,11,24.90
2016,08,25,11,12,25.00
2016,08,25,11,13,25.10
2016,08,25,11,14,25.10
2016,08,25,11,15,25.20
2016,08,25,11,16,25.20
2016,08,25,11,17,25.20
2016,08,25,11,18,25.20
2016,08,25,11,19,25.30
2016,08,25,11,20,25.30
2016,08,25,11,21,25.30
2016,08,25,11,22,25.40
2016,08,25,11,23,25.40
2016,08,25,11,24,25.40
2016,08,25,11,25,25.40
2016,08,25,11,26,25.40
2016,08,25,11,27,25.30
2016,08,25,11,28,25.40
2016,08,25,11,29,25.40
2016,08,25,11,30,25.40
2016,08,25,11,31,25.50
2016,08,25,11,32,25.60
2016,08,25,11,33,25.60
2016,08,25,11,34,25.60
2016,08,25,11,35,25.60
2016,08,25,11,36,25.60
2016,08,25,11,37,25.60
2016,08,25,11,38,25.60
2016,08,25,11,39,25.70
2016,08,25,11,40,25.70
2016,08,25,11,41,25.70
2016,08,25,11,42,25.80
2016,08,25,11,43,25.80
2016,08,25,11,44,25.80
2016,08,25,11,45,25.80
2016,08,25,11,46,25.80
2016,08,25,11,47,25.80
2016,08,25,11,48,25.80
2016,08,25,11,49,25.80
2016,08,25,11,50,25.90
2016,08,25,11,51,25.90
2016,08,25,11,52,25.90
2016,08,25,11,53,25.90
2016,08,25,11,54,26.00
2016,08,25,11,55,26.20
2016,08,25,11,56,26.30
2016,08,25,11,57,26.50
2016,08,25,11,58,26.60
2016,08,25,11,59,26.60
2016,08,25,12,00,26.40
2016,08,25,12,01,26.20
2016,08,25,12,02,26.10
2016,08,25,12,03,26.00
2016,08,25,12,04,25.90
2016,08,25,12,05,25.80
2016,08,25,12,06,25.80
2016,08,25,12,07,25.80
2016,08,25,12,08,25.70
2016,08,25,12,09,25.60
2016,08,25,12,10,25.60
2016,08,25,12,11,25.60
2016,08,25,12,12,25.50
2016,08,25,12,13,25.50
2016,08,25,12,14,25.60
2016,08,25,12,15,25.70
2016,08,25,12,16,25.80
2016,08,25,12,17,25.80
2016,08,25,12,18,25.80
2016,08,25,12,19,25.80
2016,08,25,12,20,25.90
2016,08,25,12,21,26.00
2016,08,25,12,22,26.00
2016,08,25,12,23,26.10
2016,08,25,12,24,26.10
2016,08,25,12,25,26.10
2016,08,25,12,26,26.00
2016,08,25,12,27,26.00
2016,08,25,12,28,26.00
2016,08,25,12,29,26.00
2016,08,25,12,30,25.90
2016,08,25,12,31,25.90
2016,08,25,12,32,26.00
2016,08,25,12,33,26.00
2016,08,25,12,34,26.10
2016,08,25,12,35,26.30
2016,08,25,12,36,26.30
2016,08,25,12,37,26.20
2016,08,25,12,38,26.20
2016,08,25,12,39,26.20
2016,08,25,12,40,26.30
2016,08,25,12,41,26.40
2016,08,25,12,42,26.40
2016,08,25,12,43,26.40
2016,08,25,12,44,26.40
2016,08,25,12,45,26.40
2016,08,25,12,46,26.40
2016,08,25,12,47,26.30
2016,08,25,12,48,26.30
2016,08,25,12,49,26.30
2016,08,25,12,50,26.10
2016,08,25,12,51,26.10
2016,08,25,12,52,26.10
2016,08,25,12,53,26.10
2016,08,25,12,54,26.10
2016,08,25,12,55,26.10
2016,08,25,12,56,26.10
2016,08,25,12,57,26.00
2016,08,25,12,58,25.90
2016,08,25,12,59,26.00
2016,08,25,13,00,26.10
2016,08,25,13,01,26.20
2016,08,25,13,02,26.30
2016,08,25,13,03,26.40
2016,08,25,13,04,26.50
2016,08,25,13,05,26.60
2016,08,25,13,06,26.70
2016,08,25,13,07,26.80
2016,08,25,13,08,27.00
2016,08,25,13,09,27.10
2016,08,25,13,10,27.20
2016,08,25,13,11,27.20
2016,08,25,13,12,27.20
2016,08,25,13,13,27.20
2016,08,25,13,14,27.30
2016,08,25,13,15,27.20
2016,08,25,13,16,27.20
2016,08,25,13,17,27.20
2016,08,25,13,18,27.30
2016,08,25,13,19,27.30
2016,08,25,13,20,27.30
2016,08,25,13,21,27.30
2016,08,25,13,22,27.30
2016,08,25,13,23,27.30
2016,08,25,13,24,27.30
2016,08,25,13,25,27.30
2016,08,25,13,26,27.30
2016,08,25,13,27,27.30
2016,08,25,13,28,27.30
2016,08,25,13,29,27.30
2016,08,25,13,30,27.30
2016,08,25,13,31,27.40
2016,08,25,13,32,27.30
2016,08,25,13,33,27.30
2016,08,25,13,34,27.30
2016,08,25,13,35,27.30
2016,08,25,13,36,27.30
2016,08,25,13,37,27.20
2016,08,25,13,38,27.10
2016,08,25,13,39,27.00
2016,08,25,13,40,26.90
2016,08,25,13,41,26.80
2016,08,25,13,42,26.90
2016,08,25,13,43,27.00
2016,08,25,13,44,27.10
2016,08,25,13,45,27.20
2016,08,25,13,46,27.30
2016,08,25,13,47,27.20
2016,08,25,13,48,27.20
2016,08,25,13,49,27.30
2016,08,25,13,50,27.20
2016,08,25,13,51,27.10
2016,08,25,13,52,27.00
2016,08,25,13,53,26.90
2016,08,25,13,54,26.80
2016,08,25,13,55,26.80
2016,08,25,13,56,26.70
2016,08,25,13,57,26.60
2016,08,25,13,58,26.60
2016,08,25,13,59,26.60
2016,08,25,14,00,26.60
2016,08,25,14,01,26.80
2016,08,25,14,02,26.90
2016,08,25,14,03,26.90
2016,08,25,14,04,26.90
2016,08,25,14,05,26.90
2016,08,25,14,06,26.90
2016,08,25,14,07,27.10
2016,08,25,14,08,27.20
2016,08,25,14,09,27.20
2016,08,25,14,10,27.30
2016,08,25,14,11,27.40
2016,08,25,14,12,27.50
2016,08,25,14,13,27.60
2016,08,25,14,14,27.70
2016,08,25,14,15,27.80
2016,08,25,14,16,27.70
2016,08,25,14,17,27.60
2016,08,25,14,18,27.50
2016,08,25,14,19,27.40
2016,08,25,14,20,27.40
2016,08,25,14,21,27.40
2016,08,25,14,22,27.40
2016,08,25,14,23,27.40
2016,08,25,14,24,27.40
2016,08,25,14,25,27.40
2016,08,25,14,26,27.30
2016,08,25,14,27,27.20
2016,08,25,14,28,27.20
2016,08,25,14,29,27.20
2016,08,25,14,30,27.30
2016,08,25,14,31,27.30
2016,08,25,14,32,27.30
2016,08,25,14,33,27.30
2016,08,25,14,34,27.30
2016,08,25,14,35,27.30
2016,08,25,14,36,27.30
2016,08,25,14,37,27.30
2016,08,25,14,38,27.50
2016,08,25,14,39,27.60
2016,08,25,14,40,27.80
2016,08,25,14,41,27.80
2016,08,25,14,42,27.80
2016,08,25,14,43,27.70
2016,08,25,14,44,27.60
2016,08,25,14,45,27.50
2016,08,25,14,46,27.30
2016,08,25,14,47,27.30
2016,08,25,14,48,27.30
2016,08,25,14,49,27.20
2016,08,25,14,50,27.20
2016,08,25,14,51,27.20
2016,08,25,14,52,27.20
2016,08,25,14,53,27.20
2016,08,25,14,54,27.20
2016,08,25,14,55,27.20
2016,08,25,14,56,27.30
2016,08,25,14,57,27.30
2016,08,25,14,58,27.30
2016,08,25,14,59,27.30
2016,08,25,15,00,27.40
2016,08,25,15,01,27.50
2016,08,25,15,02,27.60
2016,08,25,15,03,27.60
2016,08,25,15,04,27.70
2016,08,25,15,05,27.80
2016,08,25,15,06,28.00
2016,08,25,15,07,28.10
2016,08,25,15,08,28.20
2016,08,25,15,09,28.20
2016,08,25,15,10,28.10
2016,08,25,15,11,28.10
2016,08,25,15,12,28.10
2016,08,25,15,13,28.20
2016,08,25,15,14,28.20
2016,08,25,15,15,28.20
2016,08,25,15,16,28.20
2016,08,25,15,17,28.30
2016,08,25,15,18,28.30
2016,08,25,15,19,28.20
2016,08,25,15,20,28.30
2016,08,25,15,21,28.30
2016,08,25,15,22,28.30
2016,08,25,15,23,28.40
2016,08,25,15,24,28.40
2016,08,25,15,25,28.40
2016,08,25,15,26,28.40
2016,08,25,15,27,28.40
2016,08,25,15,28,28.50
2016,08,25,15,29,28.60
2016,08,25,15,30,28.80
2016,08,25,15,31,28.70
2016,08,25,15,32,28.70
2016,08,25,15,33,28.70
2016,08,25,15,34,28.70
2016,08,25,15,35,28.80
2016,08,25,15,36,28.80
2016,08,25,15,37,28.90
2016,08,25,15,38,28.90
2016,08,25,15,39,28.90
2016,08,25,15,40,28.90
2016,08,25,15,41,28.90
2016,08,25,15,42,28.80
2016,08,25,15,43,28.80
2016,08,25,15,44,28.70
2016,08,25,15,45,28.70
2016,08,25,15,46,28.70
2016,08,25,15,47,28.60
2016,08,25,15,48,28.60
2016,08,25,15,49,28.70
2016,08,25,15,50,28.80
2016,08,25,15,51,28.80
2016,08,25,15,52,28.90
2016,08,25,15,53,28.90
2016,08,25,15,54,29.00
2016,08,25,15,55,29.10
2016,08,25,15,56,29.20
2016,08,25,15,57,29.20
2016,08,25,15,58,29.20
2016,08,25,15,59,29.20
2016,08,25,16,00,29.20
2016,08,25,16,01,29.20
2016,08,25,16,02,29.30
2016,08,25,16,03,29.30
2016,08,25,16,04,29.40
2016,08,25,16,05,29.50
2016,08,25,16,06,29.50
2016,08,25,16,07,29.50
2016,08,25,16,08,29.50
2016,08,25,16,09,29.50
2016,08,25,16,10,29.50
2016,08,25,16,11,29.50
2016,08,25,16,12,29.50
2016,08,25,16,13,29.60
2016,08,25,16,14,29.60
2016,08,25,16,15,29.70
2016,08,25,16,16,29.60
2016,08,25,16,17,29.60
2016,08,25,16,18,29.60
2016,08,25,16,19,29.50
2016,08,25,16,20,29.50
2016,08,25,16,21,29.40
2016,08,25,16,22,29.40
2016,08,25,16,23,29.40
2016,08,25,16,24,29.50
2016,08,25,16,25,29.50
2016,08,25,16,26,29.60
2016,08,25,16,27,29.60
2016,08,25,16,28,29.70
2016,08,25,16,29,29.70
2016,08,25,16,30,29.70
2016,08,25,16,31,29.80
2016,08,25,16,32,29.80
2016,08,25,16,33,29.90
2016,08,25,16,34,29.90
2016,08,25,16,35,29.90
2016,08,25,16,36,29.90
2016,08,25,16,37,29.80
2016,08,25,16,38,29.80
2016,08,25,16,39,29.70
2016,08,25,16,40,29.70
2016,08,25,16,41,29.80
2016,08,25,16,42,29.80
2016,08,25,16,43,29.90
2016,08,25,16,44,29.90
2016,08,25,16,45,29.90
2016,08,25,16,46,29.90
2016,08,25,16,47,29.80
2016,08,25,16,48,29.80
2016,08,25,16,49,29.80
2016,08,25,16,50,29.80
2016,08,25,16,51,29.90
2016,08,25,16,52,29.90
2016,08,25,16,53,29.90
2016,08,25,16,54,29.90
2016,08,25,16,55,29.80
2016,08,25,16,56,29.80
2016,08,25,16,57,29.80
2016,08,25,16,58,29.80
2016,08,25,16,59,29.80
2016,08,25,17,00,29.90
2016,08,25,17,01,30.00
2016,08,25,17,02,30.10
2016,08,25,17,03,30.20
2016,08,25,17,04,30.30
2016,08,25,17,05,30.30
2016,08,25,17,06,30.30
2016,08,25,17,07,30.40
2016,08,25,17,08,30.40
2016,08,25,17,09,30.60
2016,08,25,17,10,30.60
2016,08,25,17,11,30.60
2016,08,25,17,12,30.60
2016,08,25,17,13,30.60
2016,08,25,17,14,30.60
2016,08,25,17,15,30.60
2016,08,25,17,16,30.60
2016,08,25,17,17,30.60
2016,08,25,17,18,30.70
2016,08,25,17,19,30.70